Bremerton, WA

10:42 AM PDT on October 14, 2019 (GMT -0700)
Bremerton National

Weather History for KPWT - August, 2019

Change the Weather History Date:

Friday, August 2, 2019

  Actual Average Record
Temperature  
Mean Temperature 68 °F -  
Max Temperature 75 °F 74 °F 89 °F (2015)
Min Temperature 60 °F 50 °F 44 °F (2008)
Cooling Degree Days 2    
Growing Degree Days 18 (Base 50)    
Moisture  
Dew Point 61 °F    
Average Humidity 82    
Maximum Humidity 100    
Minimum Humidity 64    
Precipitation  
Precipitation 0.40 in - - ()
Sea Level Pressure  
Sea Level Pressure 30.09 in    
Wind  
Wind Speed 10 mph (South)    
Max Wind Speed 16 mph    
Max Gust Speed 24 mph    
Visibility 10 miles    
Events Rain    
Averages and records for this station are not official NWS values.
T = Trace of Precipitation, MM = Missing Value Source: NWS Daily Summary

Daily Weather History Graph

Daily Weather History Graph

Search for Another Location

Airport or City:

Astronomy

Aug. 02, 2019 Rise Set
Actual Time 5:50 AM PDT 8:43 PM PDT
Civil Twilight 5:14 AM PDT 9:19 PM PDT
Nautical Twilight 4:28 AM PDT 10:05 PM PDT
Astronomical Twilight 3:32 AM PDT 10:59 PM PDT
Moon 7:39 AM PDT (8/2) 10:08 PM PDT (8/2)
Length of Visible Light 16h 05m
Length of Day
14h 53m
Waxing Crescent, 4% of the Moon is Illuminated
Aug 2
Waxing Crescent
Aug 7
First Quarter
Aug 15
Full
Aug 23
Last Quarter
Aug 30
New

Hourly Weather History & Observations

Time (PDT) Temp. Dew Point Humidity Pressure Visibility Wind Dir Wind Speed Gust Speed Precip Events Conditions
12:14 AM 64.4 °F 59.0 °F 83% 29.97 in 10.0 mi SW 12.7 mph 23.0 mph N/A   Mostly Cloudy
12:56 AM 63.0 °F 59.0 °F 87% 30.00 in 10.0 mi SSW 10.4 mph - 0.00 in Rain Light Rain
1:07 AM 62.6 °F 59.0 °F 88% 29.95 in 10.0 mi SSW 11.5 mph - 0.00 in Rain Light Rain
1:56 AM 63.0 °F 60.1 °F 90% 30.01 in 10.0 mi South 6.9 mph - 0.00 in   Mostly Cloudy
2:56 AM 62.1 °F 60.1 °F 93% 30.00 in 5.0 mi South 8.1 mph - 0.32 in Rain Rain
3:24 AM 60.8 °F 60.8 °F 100% 29.97 in 9.0 mi SSW 9.2 mph - 0.01 in Rain Light Rain
3:37 AM 62.6 °F 60.8 °F 94% 29.97 in 8.0 mi SSW 11.5 mph - 0.04 in Rain Light Rain
3:56 AM 62.1 °F 61.0 °F 96% 30.01 in 8.0 mi SSW 13.8 mph - 0.07 in Rain Light Rain
4:56 AM 62.1 °F 61.0 °F 96% 30.02 in 10.0 mi South 16.1 mph 24.2 mph 0.01 in   Overcast
5:56 AM 62.1 °F 61.0 °F 96% 30.04 in 10.0 mi South 10.4 mph - N/A   Overcast
6:56 AM 63.0 °F 61.0 °F 93% 30.06 in 10.0 mi South 10.4 mph - N/A   Overcast
7:56 AM 63.0 °F 62.1 °F 97% 30.09 in 10.0 mi SSW 10.4 mph - N/A   Overcast
8:16 AM 62.6 °F 62.6 °F 100% 30.05 in 10.0 mi South 10.4 mph - N/A   Overcast
8:56 AM 64.0 °F 62.1 °F 93% 30.11 in 10.0 mi South 10.4 mph - 0.00 in   Overcast
9:28 AM 64.4 °F 62.6 °F 94% 30.08 in 10.0 mi SSW 10.4 mph - N/A   Overcast
9:56 AM 66.0 °F 63.0 °F 90% 30.12 in 10.0 mi SSW 11.5 mph - N/A   Mostly Cloudy
10:11 AM 66.2 °F 62.6 °F 88% 30.08 in 10.0 mi SSW 13.8 mph - N/A   Mostly Cloudy
10:26 AM 68.0 °F 62.6 °F 83% 30.09 in 10.0 mi SSW 10.4 mph - N/A   Mostly Cloudy
10:33 AM 69.8 °F 62.6 °F 78% 30.09 in 10.0 mi SSW 12.7 mph - N/A   Scattered Clouds
10:56 AM 70.0 °F 63.0 °F 78% 30.14 in 10.0 mi SSW 11.5 mph - N/A   Mostly Cloudy
11:22 AM 69.8 °F 62.6 °F 78% 30.10 in 10.0 mi SSW 10.4 mph - N/A   Mostly Cloudy
11:54 AM 71.6 °F 62.6 °F 73% 30.11 in 10.0 mi SSW 6.9 mph - N/A   Mostly Cloudy
11:56 AM 72.0 °F 62.1 °F 71% 30.15 in 10.0 mi SW 5.8 mph - N/A   Mostly Cloudy
12:52 PM 73.4 °F 62.6 °F 69% 30.12 in 10.0 mi South 4.6 mph - N/A   Mostly Cloudy
12:56 PM 73.0 °F 63.0 °F 71% 30.16 in 10.0 mi Variable 6.9 mph - N/A   Mostly Cloudy
1:56 PM 72.0 °F 62.1 °F 71% 30.16 in 10.0 mi East 9.2 mph - N/A   Mostly Cloudy
2:56 PM 72.0 °F 62.1 °F 71% 30.16 in 10.0 mi NE 9.2 mph - N/A   Scattered Clouds
3:56 PM 75.0 °F 62.1 °F 64% 30.15 in 10.0 mi Variable 5.8 mph - N/A   Partly Cloudy
4:56 PM 73.9 °F 62.1 °F 66% 30.15 in 10.0 mi ENE 8.1 mph - N/A   Scattered Clouds
5:56 PM 73.9 °F 61.0 °F 64% 30.14 in 10.0 mi NE 11.5 mph - N/A   Scattered Clouds
6:56 PM 72.0 °F 60.1 °F 66% 30.15 in 10.0 mi NNE 8.1 mph - N/A   Clear
7:56 PM 72.0 °F 59.0 °F 64% 30.15 in 10.0 mi NE 5.8 mph - N/A   Clear
8:56 PM 66.9 °F 57.9 °F 73% 30.17 in 10.0 mi ENE 4.6 mph - N/A   Clear
9:56 PM 66.0 °F 57.0 °F 73% 30.18 in 10.0 mi ENE 6.9 mph - N/A   Clear
10:56 PM 64.0 °F 57.0 °F 78% 30.19 in 10.0 mi ENE 4.6 mph - N/A   Clear
11:56 PM 62.1 °F 57.0 °F 84% 30.19 in 10.0 mi Calm Calm - N/A   Mostly Cloudy